,,,PA_Meas_PMT16A,,PR_Meas_QMR101_102,,RH_Meas_QMH101,,SR_Meas_QMS101,,TA_Meas_QMH101,,GenWind,,GenWind,
date,time,status,PA,status,PR,status,RH,status,SR,status,TA,status,DirAvg,status,SpdAvg,
2008-10-28, 00:00:05,VALID,1005.26,VALID,0,VALID,95.5822,VALID,0,VALID,24.2699,VALID,168,VALID,0.485156,
2008-10-28, 00:01:05,VALID,1005.26,VALID,0,VALID,95.5517,VALID,0,VALID,24.2486,VALID,168,VALID,0.381641,
2008-10-28, 00:02:05,VALID,1005.22,VALID,0,VALID,95.5899,VALID,0,VALID,24.2291,VALID,168,VALID,0.323438,
2008-10-28, 00:03:05,VALID,1005.23,VALID,0,VALID,95.6051,VALID,0,VALID,24.2291,VALID,168,VALID,0.149609,
2008-10-28, 00:04:05,VALID,1005.24,VALID,0,VALID,95.6585,VALID,0,VALID,24.2894,VALID,168,VALID,0.255859,
2008-10-28, 00:05:05,VALID,1005.24,VALID,0,VALID,95.6738,VALID,0,VALID,24.2699,VALID,168,VALID,0,
2008-10-28, 00:06:05,VALID,1005.23,VALID,0,VALID,95.628,VALID,0,VALID,24.2486,VALID,162,VALID,0.296875,
2008-10-28, 00:07:05,VALID,1005.24,VALID,0,VALID,95.6585,VALID,0,VALID,24.2894,VALID,162,VALID,0.270312,
2008-10-28, 00:08:05,VALID,1005.24,VALID,0,VALID,95.6509,VALID,0,VALID,24.2699,VALID,147,VALID,0.289063,
2008-10-28, 00:09:05,VALID,1005.23,VALID,0,VALID,95.6662,VALID,0,VALID,24.2875,VALID,147,VALID,0.41875,
2008-10-28, 00:10:05,VALID,1005.21,VALID,0,VALID,95.6738,VALID,0.100563,VALID,24.307,VALID,147,VALID,0.169141,
2008-10-28, 00:11:05,VALID,1005.19,VALID,0,VALID,95.6814,VALID,0.100563,VALID,24.307,VALID,147,VALID,0.1375,
2008-10-28, 00:12:05,VALID,1005.21,VALID,0,VALID,95.6814,VALID,0.100563,VALID,24.3265,VALID,147,VALID,0.138281,
2008-10-28, 00:13:05,VALID,1005.2,VALID,0,VALID,95.6967,VALID,0,VALID,24.3265,VALID,147,VALID,0.370313,
2008-10-28, 00:14:05,VALID,1005.21,VALID,0,VALID,95.6814,VALID,0.100563,VALID,24.3265,VALID,147,VALID,0.2125,
2008-10-28, 00:15:05,VALID,1005.22,VALID,0,VALID,95.6967,VALID,0.100563,VALID,24.3459,VALID,147,VALID,0,
2008-10-28, 00:16:05,VALID,1005.23,VALID,0,VALID,95.7043,VALID,0,VALID,24.3459,VALID,147,VALID,0.114453,
2008-10-28, 00:17:05,VALID,1005.23,VALID,0,VALID,95.7043,VALID,0,VALID,24.3459,VALID,106,VALID,0,
2008-10-28, 00:18:05,VALID,1005.23,VALID,0,VALID,95.6814,VALID,0,VALID,24.3265,VALID,101,VALID,0,
2008-10-28, 00:19:05,VALID,1005.24,VALID,0,VALID,95.7119,VALID,0,VALID,24.3459,VALID,101,VALID,0,
2008-10-28, 00:20:05,VALID,1005.26,VALID,0,VALID,95.7348,VALID,0.100563,VALID,24.3654,VALID,101,VALID,0,
2008-10-28, 00:21:05,VALID,1005.21,VALID,0,VALID,95.7119,VALID,0,VALID,24.3441,VALID,101,VALID,0,
2008-10-28, 00:22:05,VALID,1005.23,VALID,0,VALID,95.6662,VALID,0,VALID,24.3654,VALID,101,VALID,0,
2008-10-28, 00:23:05,VALID,1005.24,VALID,0,VALID,95.6585,VALID,0.100563,VALID,24.3246,VALID,101,VALID,0,
2008-10-28, 00:24:05,VALID,1005.22,VALID,0,VALID,95.689,VALID,0,VALID,24.3673,VALID,101,VALID,0,
2008-10-28, 00:25:05,VALID,1005.21,VALID,0,VALID,95.6967,VALID,0.100563,VALID,24.3654,VALID,101,VALID,0,
2008-10-28, 00:26:05,VALID,1005.24,VALID,0,VALID,95.689,VALID,0,VALID,24.3654,VALID,101,VALID,0,
2008-10-28, 00:27:05,VALID,1005.22,VALID,0,VALID,95.6509,VALID,0,VALID,24.3459,VALID,101,VALID,0,
2008-10-28, 00:28:05,VALID,1005.23,VALID,0,VALID,95.6738,VALID,0,VALID,24.3246,VALID,101,VALID,0,
2008-10-28, 00:29:05,VALID,1005.21,VALID,0,VALID,95.689,VALID,0,VALID,24.3459,VALID,101,VALID,0,
2008-10-28, 00:30:05,VALID,1005.26,VALID,0,VALID,95.7043,VALID,0.100563,VALID,24.3246,VALID,101,VALID,0,
2008-10-28, 00:31:05,VALID,1005.24,VALID,0,VALID,95.689,VALID,0.100563,VALID,24.3441,VALID,96,VALID,0.514063,
2008-10-28, 00:32:05,VALID,1005.22,VALID,0,VALID,95.6585,VALID,0.100563,VALID,24.3459,VALID,108,VALID,0.339063,
2008-10-28, 00:33:05,VALID,1005.22,VALID,0,VALID,95.6585,VALID,0.100563,VALID,24.3246,VALID,97,VALID,0.226172,
2008-10-28, 00:34:05,VALID,1005.23,VALID,0,VALID,95.6662,VALID,0.100563,VALID,24.3654,VALID,97,VALID,0.189453,
2008-10-28, 00:35:05,VALID,1005.2,VALID,0,VALID,95.6585,VALID,0.100563,VALID,24.3459,VALID,97,VALID,0.201562,
2008-10-28, 00:36:05,VALID,1005.17,VALID,0,VALID,95.6738,VALID,0,VALID,24.3246,VALID,97,VALID,0,
2008-10-28, 00:37:05,VALID,1005.16,VALID,0,VALID,95.6814,VALID,0.100563,VALID,24.3654,VALID,97,VALID,0.171875,
2008-10-28, 00:38:05,VALID,1005.12,VALID,0,VALID,95.7043,VALID,0.100563,VALID,24.3459,VALID,97,VALID,0.403516,
2008-10-28, 00:39:05,VALID,1005.14,VALID,0,VALID,95.689,VALID,0,VALID,24.3673,VALID,97,VALID,0.213672,
2008-10-28, 00:40:05,VALID,1005.09,VALID,0,VALID,95.6967,VALID,0,VALID,24.3673,VALID,97,VALID,0.555859,
2008-10-28, 00:41:05,VALID,1005.07,VALID,0,VALID,95.7272,VALID,0,VALID,24.3867,VALID,97,VALID,0.327344,
2008-10-28, 00:42:05,VALID,1005.07,VALID,0,VALID,95.7272,VALID,0,VALID,24.4062,VALID,97,VALID,0.418359,
2008-10-28, 00:43:05,VALID,1005.01,VALID,0,VALID,95.7348,VALID,0,VALID,24.4062,VALID,97,VALID,0.370313,
2008-10-28, 00:44:05,VALID,1005,VALID,0,VALID,95.689,VALID,0,VALID,24.4062,VALID,97,VALID,0.5375,
2008-10-28, 00:45:05,VALID,1004.99,VALID,0,VALID,95.6967,VALID,0,VALID,24.3849,VALID,97,VALID,0.407813,
2008-10-28, 00:46:05,VALID,1004.97,VALID,0,VALID,95.7196,VALID,0,VALID,24.4062,VALID,97,VALID,0.491406,
2008-10-28, 00:47:05,VALID,1004.93,VALID,0,VALID,95.689,VALID,0,VALID,24.4062,VALID,97,VALID,0.420703,
2008-10-28, 00:48:05,VALID,1004.89,VALID,0,VALID,95.7196,VALID,0,VALID,24.4257,VALID,97,VALID,0.238672,
2008-10-28, 00:49:05,VALID,1004.87,VALID,0,VALID,95.7196,VALID,0,VALID,24.4043,VALID,97,VALID,0.566016,
2008-10-28, 00:50:05,VALID,1004.83,VALID,0,VALID,95.7043,VALID,0,VALID,24.4257,VALID,101,VALID,0.527344,
2008-10-28, 00:51:05,VALID,1004.8,VALID,0,VALID,95.6662,VALID,0,VALID,24.4257,VALID,101,VALID,0.426953,
2008-10-28, 00:52:05,VALID,1004.77,VALID,0,VALID,95.6738,VALID,0,VALID,24.4451,VALID,122,VALID,0.470313,
2008-10-28, 00:53:05,VALID,1004.74,VALID,0,VALID,95.6662,VALID,0,VALID,24.4451,VALID,134,VALID,0.638281,
2008-10-28, 00:54:05,VALID,1004.7,VALID,0,VALID,95.6967,VALID,0,VALID,24.4628,VALID,122,VALID,0.440625,
2008-10-28, 00:55:05,VALID,1004.66,VALID,0,VALID,95.689,VALID,0,VALID,24.4822,VALID,113,VALID,0.1625,
2008-10-28, 00:56:05,VALID,1004.66,VALID,0,VALID,95.6433,VALID,0,VALID,24.4822,VALID,113,VALID,0,
2008-10-28, 00:57:05,VALID,1004.62,VALID,0,VALID,95.6509,VALID,0,VALID,24.4822,VALID,113,VALID,0,
2008-10-28, 00:58:05,VALID,1004.61,VALID,0,VALID,95.6433,VALID,0,VALID,24.4822,VALID,113,VALID,0,
2008-10-28, 00:59:05,VALID,1004.61,VALID,0,VALID,95.6356,VALID,0.100563,VALID,24.4804,VALID,113,VALID,0,
2008-10-28, 01:00:05,VALID,1004.58,VALID,0,VALID,95.6585,VALID,0,VALID,24.5212,VALID,113,VALID,0.0222656,
2008-10-28, 01:01:05,VALID,1004.58,VALID,0,VALID,95.6662,VALID,0.100563,VALID,24.5212,VALID,113,VALID,0,
2008-10-28, 01:02:05,VALID,1004.55,VALID,0,VALID,95.6509,VALID,0.100563,VALID,24.5406,VALID,113,VALID,0,
2008-10-28, 01:03:05,VALID,1004.54,VALID,0,VALID,95.6967,VALID,0.100563,VALID,24.5601,VALID,113,VALID,0.00117188,
2008-10-28, 01:04:05,VALID,1004.51,VALID,0,VALID,95.6662,VALID,0,VALID,24.5388,VALID,113,VALID,0,
2008-10-28, 01:05:05,VALID,1004.51,VALID,0,VALID,95.6662,VALID,0,VALID,24.5601,VALID,113,VALID,0,
2008-10-28, 01:06:05,VALID,1004.48,VALID,0,VALID,95.6433,VALID,0.100563,VALID,24.5601,VALID,113,VALID,0,
2008-10-28, 01:07:05,VALID,1004.47,VALID,0,VALID,95.6204,VALID,0,VALID,24.5406,VALID,113,VALID,0,
2008-10-28, 01:08:05,VALID,1004.46,VALID,0,VALID,95.6128,VALID,0,VALID,24.5406,VALID,113,VALID,0,
2008-10-28, 01:09:05,VALID,1004.42,VALID,0,VALID,95.628,VALID,0.100563,VALID,24.5601,VALID,113,VALID,0,
2008-10-28, 01:10:05,VALID,1004.4,VALID,0,VALID,95.628,VALID,0,VALID,24.5814,VALID,113,VALID,0,
2008-10-28, 01:11:05,VALID,1004.4,VALID,0,VALID,95.6128,VALID,0,VALID,24.5601,VALID,113,VALID,0,
2008-10-28, 01:12:05,VALID,1004.38,VALID,0,VALID,95.628,VALID,0,VALID,24.5601,VALID,113,VALID,0,
2008-10-28, 01:13:05,VALID,1004.37,VALID,0,VALID,95.6356,VALID,0,VALID,24.5601,VALID,113,VALID,0,
2008-10-28, 01:14:05,VALID,1004.36,VALID,0,VALID,95.6585,VALID,0.100563,VALID,24.5601,VALID,113,VALID,0,
2008-10-28, 01:15:05,VALID,1004.37,VALID,0,VALID,95.6356,VALID,0.100563,VALID,24.5796,VALID,113,VALID,0,
2008-10-28, 01:16:05,VALID,1004.39,VALID,0,VALID,95.6585,VALID,0.100563,VALID,24.5796,VALID,113,VALID,0,
2008-10-28, 01:17:05,VALID,1004.39,VALID,0,VALID,95.6738,VALID,0.100563,VALID,24.5796,VALID,113,VALID,0,
2008-10-28, 01:18:05,VALID,1004.34,VALID,0,VALID,95.6738,VALID,0.100563,VALID,24.599,VALID,113,VALID,0,
2008-10-28, 01:19:04,VALID,1004.36,VALID,0,VALID,95.6814,VALID,0.100563,VALID,24.5796,VALID,113,VALID,0,
2008-10-28, 01:20:04,VALID,1004.36,VALID,0,VALID,95.6662,VALID,0.100563,VALID,24.599,VALID,113,VALID,0,
2008-10-28, 01:21:04,VALID,1004.37,VALID,0,VALID,95.6967,VALID,0.100563,VALID,24.599,VALID,113,VALID,0,
2008-10-28, 01:22:04,VALID,1004.36,VALID,0,VALID,95.6738,VALID,0,VALID,24.599,VALID,113,VALID,0,
2008-10-28, 01:23:04,VALID,1004.37,VALID,0,VALID,95.7119,VALID,0,VALID,24.599,VALID,113,VALID,0,
2008-10-28, 01:24:04,VALID,1004.36,VALID,0,VALID,95.7272,VALID,0.100563,VALID,24.6185,VALID,113,VALID,0,
2008-10-28, 01:25:04,VALID,1004.38,VALID,0,VALID,95.6967,VALID,0.100563,VALID,24.6185,VALID,113,VALID,0,
2008-10-28, 01:26:04,VALID,1004.37,VALID,0,VALID,95.6662,VALID,0,VALID,24.599,VALID,113,VALID,0,
2008-10-28, 01:27:04,VALID,1004.35,VALID,0,VALID,95.6967,VALID,0.100563,VALID,24.599,VALID,113,VALID,0,
2008-10-28, 01:28:04,VALID,1004.29,VALID,0,VALID,95.7196,VALID,0.100563,VALID,24.6185,VALID,113,VALID,0,
2008-10-28, 01:29:04,VALID,1004.29,VALID,0,VALID,95.6967,VALID,0.100563,VALID,24.5972,VALID,113,VALID,0,
2008-10-28, 01:30:04,VALID,1004.29,VALID,0,VALID,95.7119,VALID,0.100563,VALID,24.6204,VALID,113,VALID,0,
2008-10-28, 01:31:04,VALID,1004.27,VALID,0,VALID,95.7272,VALID,0.100563,VALID,24.638,VALID,113,VALID,0,
2008-10-28, 01:32:04,VALID,1004.25,VALID,0,VALID,95.7577,VALID,0.100563,VALID,24.6574,VALID,69,VALID,0.1125,
2008-10-28, 01:33:04,VALID,1004.23,VALID,0,VALID,95.7577,VALID,0,VALID,24.638,VALID,321,VALID,0.632422,
2008-10-28, 01:34:04,VALID,1004.23,VALID,0,VALID,95.7577,VALID,0,VALID,24.638,VALID,295,VALID,0.302734,
2008-10-28, 01:35:04,VALID,1004.2,VALID,0,VALID,95.7424,VALID,0,VALID,24.6574,VALID,297,VALID,0.401953,
2008-10-28, 01:36:04,VALID,1004.13,VALID,0,VALID,95.7424,VALID,0,VALID,24.6983,VALID,298,VALID,0.0382813,
2008-10-28, 01:37:04,VALID,1004.14,VALID,0,VALID,95.7196,VALID,0,VALID,24.6769,VALID,298,VALID,0.180859,
2008-10-28, 01:38:04,VALID,1004.09,VALID,0,VALID,95.7653,VALID,0,VALID,24.6964,VALID,298,VALID,0.0476562,
2008-10-28, 01:39:04,VALID,1004.06,VALID,0,VALID,95.7577,VALID,0,VALID,24.6964,VALID,298,VALID,0.485938,
2008-10-28, 01:40:04,VALID,1004.04,VALID,0,VALID,95.7653,VALID,0,VALID,24.7159,VALID,298,VALID,0.284766,
2008-10-28, 01:41:04,VALID,1003.99,VALID,0,VALID,95.7119,VALID,0,VALID,24.7159,VALID,311,VALID,0.4625,
2008-10-28, 01:42:04,VALID,1003.98,VALID,0,VALID,95.7272,VALID,0,VALID,24.6945,VALID,311,VALID,0.0117188,
2008-10-28, 01:43:04,VALID,1003.95,VALID,0,VALID,95.6662,VALID,0.100563,VALID,24.7159,VALID,310,VALID,0.490234,
2008-10-28, 01:44:04,VALID,1003.97,VALID,0,VALID,95.689,VALID,0,VALID,24.7159,VALID,310,VALID,0,
2008-10-28, 01:45:04,VALID,1003.97,VALID,0,VALID,95.6585,VALID,0,VALID,24.6964,VALID,309,VALID,0.334766,
2008-10-28, 01:46:04,VALID,1003.97,VALID,0,VALID,95.628,VALID,0,VALID,24.7177,VALID,309,VALID,0,
2008-10-28, 01:47:04,VALID,1003.98,VALID,0,VALID,95.6128,VALID,0.100563,VALID,24.6964,VALID,309,VALID,0,
2008-10-28, 01:48:04,VALID,1003.96,VALID,0,VALID,95.6204,VALID,0,VALID,24.6964,VALID,309,VALID,0,
2008-10-28, 01:49:04,VALID,1003.95,VALID,0,VALID,95.6433,VALID,0,VALID,24.6556,VALID,309,VALID,0,
2008-10-28, 01:50:04,VALID,1003.92,VALID,0,VALID,95.628,VALID,0,VALID,24.6574,VALID,309,VALID,0,
2008-10-28, 01:51:04,VALID,1003.94,VALID,0,VALID,95.628,VALID,0,VALID,24.6769,VALID,309,VALID,0,
2008-10-28, 01:52:04,VALID,1003.93,VALID,0,VALID,95.628,VALID,0,VALID,24.6574,VALID,309,VALID,0,
2008-10-28, 01:53:04,VALID,1003.94,VALID,0,VALID,95.6204,VALID,0,VALID,24.6361,VALID,309,VALID,0,
2008-10-28, 01:54:04,VALID,1003.91,VALID,0,VALID,95.6051,VALID,0,VALID,24.6398,VALID,309,VALID,0,
2008-10-28, 01:55:04,VALID,1003.93,VALID,0,VALID,95.5975,VALID,0,VALID,24.6204,VALID,309,VALID,0,
2008-10-28, 01:56:04,VALID,1003.88,VALID,0,VALID,95.628,VALID,0,VALID,24.6204,VALID,309,VALID,0,
2008-10-28, 01:57:04,VALID,1003.87,VALID,0,VALID,95.6204,VALID,0,VALID,24.6009,VALID,309,VALID,0,
2008-10-28, 01:58:04,VALID,1003.87,VALID,0,VALID,95.628,VALID,0,VALID,24.6009,VALID,309,VALID,0,
2008-10-28, 01:59:04,VALID,1003.87,VALID,0,VALID,95.6585,VALID,0,VALID,24.6204,VALID,309,VALID,0,
2008-10-28, 02:00:04,VALID,1003.86,VALID,0,VALID,95.6509,VALID,0,VALID,24.6009,VALID,309,VALID,0,
2008-10-28, 02:01:04,VALID,1003.88,VALID,0,VALID,95.6585,VALID,0,VALID,24.6009,VALID,309,VALID,0,
2008-10-28, 02:02:04,VALID,1003.85,VALID,0,VALID,95.6814,VALID,0,VALID,24.599,VALID,309,VALID,0,
2008-10-28, 02:03:04,VALID,1003.86,VALID,0,VALID,95.7043,VALID,0,VALID,24.6204,VALID,309,VALID,0,
2008-10-28, 02:04:04,VALID,1003.85,VALID,0,VALID,95.7119,VALID,0,VALID,24.6009,VALID,309,VALID,0,
2008-10-28, 02:05:04,VALID,1003.85,VALID,0,VALID,95.7196,VALID,0,VALID,24.6204,VALID,309,VALID,0,
2008-10-28, 02:06:04,VALID,1003.86,VALID,0,VALID,95.7348,VALID,0,VALID,24.6204,VALID,309,VALID,0,
2008-10-28, 02:07:04,VALID,1003.83,VALID,0,VALID,95.7119,VALID,0,VALID,24.6204,VALID,309,VALID,0,
2008-10-28, 02:08:04,VALID,1003.86,VALID,0,VALID,95.7272,VALID,0,VALID,24.599,VALID,309,VALID,0,
2008-10-28, 02:09:04,VALID,1003.85,VALID,0,VALID,95.7577,VALID,0,VALID,24.6398,VALID,300,VALID,0,
2008-10-28, 02:10:04,VALID,1003.8,VALID,0,VALID,95.7348,VALID,0,VALID,24.6398,VALID,300,VALID,0,
2008-10-28, 02:11:04,VALID,1003.83,VALID,0,VALID,95.7424,VALID,0,VALID,24.6398,VALID,300,VALID,0,
2008-10-28, 02:12:04,VALID,1003.82,VALID,0,VALID,95.7653,VALID,0,VALID,24.6593,VALID,300,VALID,0,
2008-10-28, 02:13:04,VALID,1003.84,VALID,0,VALID,95.7043,VALID,0,VALID,24.6398,VALID,301,VALID,0.269531,
2008-10-28, 02:14:04,VALID,1003.83,VALID,0,VALID,95.7196,VALID,0,VALID,24.6593,VALID,301,VALID,0,
2008-10-28, 02:15:04,VALID,1003.86,VALID,0,VALID,95.7348,VALID,0,VALID,24.6593,VALID,301,VALID,0.104687,
2008-10-28, 02:16:04,VALID,1003.83,VALID,0,VALID,95.7424,VALID,0,VALID,24.6593,VALID,301,VALID,0,
2008-10-28, 02:17:04,VALID,1003.88,VALID,0,VALID,95.7577,VALID,0,VALID,24.7001,VALID,301,VALID,0,
2008-10-28, 02:18:04,VALID,1003.87,VALID,0,VALID,95.7577,VALID,0,VALID,24.6788,VALID,301,VALID,0.237891,
2008-10-28, 02:19:04,VALID,1003.89,VALID,0,VALID,95.7424,VALID,0,VALID,24.6574,VALID,301,VALID,0.147266,
2008-10-28, 02:20:04,VALID,1003.88,VALID,0.5,VALID,95.7653,VALID,0,VALID,24.6983,VALID,301,VALID,0,
2008-10-28, 02:21:04,VALID,1003.89,VALID,0,VALID,95.7348,VALID,0,VALID,24.6769,VALID,301,VALID,0,
2008-10-28, 02:22:04,VALID,1003.91,VALID,0,VALID,95.773,VALID,0,VALID,24.6983,VALID,301,VALID,0.2625,
2008-10-28, 02:23:04,VALID,1003.9,VALID,0,VALID,95.6967,VALID,0,VALID,24.6788,VALID,301,VALID,0.150391,
2008-10-28, 02:24:04,VALID,1003.91,VALID,0,VALID,95.7119,VALID,0,VALID,24.6593,VALID,301,VALID,0,
2008-10-28, 02:25:04,VALID,1003.92,VALID,0,VALID,95.7501,VALID,0,VALID,24.6983,VALID,301,VALID,0,
2008-10-28, 02:26:04,VALID,1003.94,VALID,0,VALID,95.7196,VALID,0,VALID,24.6788,VALID,301,VALID,0,
2008-10-28, 02:27:04,VALID,1003.94,VALID,0,VALID,95.7272,VALID,0,VALID,24.6788,VALID,301,VALID,0,
2008-10-28, 02:28:04,VALID,1003.97,VALID,0,VALID,95.7424,VALID,0,VALID,24.6574,VALID,301,VALID,0.101172,
2008-10-28, 02:29:04,VALID,1003.95,VALID,0,VALID,95.7577,VALID,0,VALID,24.6593,VALID,301,VALID,0.234766,
2008-10-28, 02:30:04,VALID,1003.97,VALID,0,VALID,95.7653,VALID,0,VALID,24.6788,VALID,301,VALID,0,
2008-10-28, 02:31:04,VALID,1003.97,VALID,0,VALID,95.773,VALID,0,VALID,24.6788,VALID,301,VALID,0,
2008-10-28, 02:32:04,VALID,1003.95,VALID,0,VALID,95.7424,VALID,0,VALID,24.6788,VALID,301,VALID,0,
2008-10-28, 02:33:04,VALID,1003.95,VALID,0,VALID,95.7653,VALID,0,VALID,24.6574,VALID,301,VALID,0,
2008-10-28, 02:34:04,VALID,1003.94,VALID,0,VALID,95.7501,VALID,0,VALID,24.6788,VALID,301,VALID,0,
2008-10-28, 02:35:04,VALID,1003.94,VALID,0,VALID,95.7501,VALID,0,VALID,24.6593,VALID,301,VALID,0,
2008-10-28, 02:36:04,VALID,1003.9,VALID,0,VALID,95.7424,VALID,0,VALID,24.6788,VALID,301,VALID,0,
2008-10-28, 02:37:04,VALID,1003.9,VALID,0,VALID,95.7501,VALID,0,VALID,24.6593,VALID,301,VALID,0,
2008-10-28, 02:38:04,VALID,1003.87,VALID,0,VALID,95.7653,VALID,0,VALID,24.6593,VALID,301,VALID,0,
2008-10-28, 02:39:04,VALID,1003.84,VALID,0,VALID,95.7959,VALID,0.100563,VALID,24.6769,VALID,301,VALID,0,
2008-10-28, 02:40:04,VALID,1003.83,VALID,0,VALID,95.7806,VALID,0,VALID,24.6769,VALID,301,VALID,0,
2008-10-28, 02:41:04,VALID,1003.82,VALID,0,VALID,95.7501,VALID,0,VALID,24.6556,VALID,301,VALID,0,
2008-10-28, 02:42:04,VALID,1003.81,VALID,0,VALID,95.7348,VALID,0,VALID,24.638,VALID,301,VALID,0,
2008-10-28, 02:43:04,VALID,1003.78,VALID,0,VALID,95.7196,VALID,0,VALID,24.6788,VALID,301,VALID,0,
2008-10-28, 02:44:04,VALID,1003.82,VALID,0,VALID,95.7272,VALID,0,VALID,24.638,VALID,301,VALID,0,
2008-10-28, 02:45:04,VALID,1003.79,VALID,0.5,VALID,95.7424,VALID,0,VALID,24.6185,VALID,301,VALID,0,
2008-10-28, 02:46:04,VALID,1003.82,VALID,0,VALID,95.7501,VALID,0,VALID,24.6185,VALID,301,VALID,0,
2008-10-28, 02:47:04,VALID,1003.81,VALID,0,VALID,95.7577,VALID,0,VALID,24.6398,VALID,301,VALID,0.286328,
2008-10-28, 02:48:04,VALID,1003.84,VALID,0,VALID,95.7501,VALID,0,VALID,24.599,VALID,301,VALID,0.341016,
2008-10-28, 02:49:04,VALID,1003.83,VALID,0,VALID,95.7424,VALID,0,VALID,24.599,VALID,301,VALID,0.383203,
2008-10-28, 02:50:04,VALID,1003.86,VALID,0,VALID,95.7424,VALID,0,VALID,24.6009,VALID,301,VALID,0.140625,
2008-10-28, 02:51:04,VALID,1003.83,VALID,0,VALID,95.7806,VALID,0,VALID,24.5796,VALID,301,VALID,0.00351562,
2008-10-28, 02:52:04,VALID,1003.83,VALID,0,VALID,95.7959,VALID,0,VALID,24.5777,VALID,301,VALID,0,
2008-10-28, 02:53:04,VALID,1003.81,VALID,0,VALID,95.7806,VALID,0.100563,VALID,24.5796,VALID,301,VALID,0,
2008-10-28, 02:54:04,VALID,1003.82,VALID,0,VALID,95.773,VALID,0,VALID,24.562,VALID,301,VALID,0,
2008-10-28, 02:55:04,VALID,1003.83,VALID,0,VALID,95.773,VALID,0,VALID,24.5425,VALID,301,VALID,0,
2008-10-28, 02:56:04,VALID,1003.8,VALID,0,VALID,95.7653,VALID,0,VALID,24.5425,VALID,301,VALID,0,
2008-10-28, 02:57:04,VALID,1003.78,VALID,0,VALID,95.7653,VALID,0,VALID,24.523,VALID,301,VALID,0,
2008-10-28, 02:58:04,VALID,1003.8,VALID,0,VALID,95.8111,VALID,0,VALID,24.523,VALID,301,VALID,0,
2008-10-28, 02:59:04,VALID,1003.78,VALID,0,VALID,95.8264,VALID,0,VALID,24.5425,VALID,301,VALID,0,
2008-10-28, 03:00:04,VALID,1003.78,VALID,0,VALID,95.8264,VALID,0,VALID,24.5425,VALID,301,VALID,0,
2008-10-28, 03:01:04,VALID,1003.75,VALID,0,VALID,95.8035,VALID,0,VALID,24.5638,VALID,301,VALID,0,
2008-10-28, 03:02:04,VALID,1003.73,VALID,0,VALID,95.834,VALID,0,VALID,24.5425,VALID,301,VALID,0,
2008-10-28, 03:03:04,VALID,1003.74,VALID,0,VALID,95.8111,VALID,0,VALID,24.5425,VALID,301,VALID,0,
2008-10-28, 03:04:04,VALID,1003.73,VALID,0,VALID,95.8187,VALID,0,VALID,24.523,VALID,301,VALID,0,
2008-10-28, 03:05:04,VALID,1003.73,VALID,0,VALID,95.8111,VALID,0,VALID,24.5425,VALID,301,VALID,0,
2008-10-28, 03:06:04,VALID,1003.73,VALID,0,VALID,95.8111,VALID,0,VALID,24.5443,VALID,301,VALID,0,
2008-10-28, 03:07:04,VALID,1003.74,VALID,0,VALID,95.8111,VALID,0,VALID,24.5035,VALID,301,VALID,0,
2008-10-28, 03:08:04,VALID,1003.74,VALID,0,VALID,95.8264,VALID,0,VALID,24.523,VALID,301,VALID,0,
2008-10-28, 03:09:04,VALID,1003.74,VALID,0,VALID,95.834,VALID,0,VALID,24.5443,VALID,301,VALID,0,
2008-10-28, 03:10:04,VALID,1003.71,VALID,0,VALID,95.8493,VALID,0,VALID,24.5035,VALID,301,VALID,0,
2008-10-28, 03:11:04,VALID,1003.69,VALID,0,VALID,95.834,VALID,0,VALID,24.5035,VALID,301,VALID,0,
2008-10-28, 03:12:04,VALID,1003.71,VALID,0,VALID,95.8264,VALID,0,VALID,24.5035,VALID,301,VALID,0,
2008-10-28, 03:13:04,VALID,1003.7,VALID,0,VALID,95.8264,VALID,0,VALID,24.4841,VALID,301,VALID,0,
2008-10-28, 03:14:04,VALID,1003.69,VALID,0,VALID,95.834,VALID,0,VALID,24.4841,VALID,301,VALID,0,
2008-10-28, 03:15:04,VALID,1003.71,VALID,0,VALID,95.8569,VALID,0,VALID,24.4841,VALID,301,VALID,0.241016,
2008-10-28, 03:16:04,VALID,1003.72,VALID,0,VALID,95.8416,VALID,0,VALID,24.4841,VALID,301,VALID,0.334766,
2008-10-28, 03:17:04,VALID,1003.72,VALID,0,VALID,95.8798,VALID,0,VALID,24.4628,VALID,301,VALID,0.232031,
2008-10-28, 03:18:04,VALID,1003.7,VALID,0,VALID,95.9027,VALID,0,VALID,24.523,VALID,301,VALID,0.328516,
2008-10-28, 03:19:04,VALID,1003.75,VALID,0,VALID,95.8721,VALID,0,VALID,24.5035,VALID,301,VALID,0.291406,
2008-10-28, 03:20:04,VALID,1003.77,VALID,0,VALID,95.8721,VALID,0,VALID,24.4841,VALID,301,VALID,0.0351563,
2008-10-28, 03:21:04,VALID,1003.77,VALID,0,VALID,95.895,VALID,0,VALID,24.5249,VALID,301,VALID,0,
2008-10-28, 03:22:04,VALID,1003.81,VALID,0,VALID,95.8798,VALID,0,VALID,24.4841,VALID,301,VALID,0,
2008-10-28, 03:23:04,VALID,1003.82,VALID,0,VALID,95.9179,VALID,0,VALID,24.4841,VALID,301,VALID,0,
2008-10-28, 03:24:04,VALID,1003.79,VALID,0,VALID,95.8645,VALID,0.100563,VALID,24.4822,VALID,307,VALID,0,
2008-10-28, 03:25:04,VALID,1003.79,VALID,0,VALID,95.8569,VALID,0.100563,VALID,24.4628,VALID,326,VALID,0,
2008-10-28, 03:26:04,VALID,1003.8,VALID,0,VALID,95.8569,VALID,0,VALID,24.4628,VALID,328,VALID,0,
2008-10-28, 03:27:04,VALID,1003.84,VALID,0,VALID,95.8569,VALID,0.100563,VALID,24.4841,VALID,328,VALID,0.136719,
2008-10-28, 03:28:04,VALID,1003.82,VALID,0,VALID,95.8721,VALID,0.100563,VALID,24.4628,VALID,328,VALID,0.350781,
2008-10-28, 03:29:04,VALID,1003.81,VALID,0,VALID,95.895,VALID,0.100563,VALID,24.4628,VALID,328,VALID,0.139453,
2008-10-28, 03:30:04,VALID,1003.81,VALID,0,VALID,95.9103,VALID,0.100563,VALID,24.4628,VALID,328,VALID,0.08125,
2008-10-28, 03:31:04,VALID,1003.82,VALID,0,VALID,95.8874,VALID,0,VALID,24.4433,VALID,328,VALID,0.133594,
2008-10-28, 03:32:04,VALID,1003.81,VALID,0,VALID,95.8721,VALID,0,VALID,24.4628,VALID,328,VALID,0,
2008-10-28, 03:33:04,VALID,1003.79,VALID,0.5,VALID,95.895,VALID,0.100563,VALID,24.422,VALID,328,VALID,0,
2008-10-28, 03:34:04,VALID,1003.74,VALID,0,VALID,95.9103,VALID,0.100563,VALID,24.4433,VALID,328,VALID,0,
2008-10-28, 03:35:04,VALID,1003.78,VALID,0,VALID,95.895,VALID,0,VALID,24.4628,VALID,328,VALID,0,
2008-10-28, 03:36:04,VALID,1003.78,VALID,0,VALID,95.8798,VALID,0,VALID,24.422,VALID,328,VALID,0.0816406,
2008-10-28, 03:37:04,VALID,1003.75,VALID,0,VALID,95.895,VALID,0,VALID,24.4646,VALID,328,VALID,0.290625,
2008-10-28, 03:38:04,VALID,1003.75,VALID,0,VALID,95.9103,VALID,0.100563,VALID,24.4646,VALID,328,VALID,0.03125,
2008-10-28, 03:39:04,VALID,1003.71,VALID,0,VALID,95.9179,VALID,0.100563,VALID,24.4433,VALID,328,VALID,0,
2008-10-28, 03:40:04,VALID,1003.71,VALID,0,VALID,95.9255,VALID,0.100563,VALID,24.4414,VALID,328,VALID,0,
2008-10-28, 03:41:04,VALID,1003.69,VALID,0,VALID,95.895,VALID,0,VALID,24.4433,VALID,328,VALID,0.201562,
2008-10-28, 03:42:04,VALID,1003.68,VALID,0,VALID,95.8721,VALID,0,VALID,24.4451,VALID,328,VALID,0.226953,
2008-10-28, 03:43:04,VALID,1003.69,VALID,0,VALID,95.8874,VALID,0,VALID,24.4238,VALID,328,VALID,0.226563,
2008-10-28, 03:44:04,VALID,1003.67,VALID,0,VALID,95.8798,VALID,0,VALID,24.4238,VALID,328,VALID,0.196875,
2008-10-28, 03:45:04,VALID,1003.68,VALID,0,VALID,95.8798,VALID,0,VALID,24.4238,VALID,328,VALID,0,
2008-10-28, 03:46:04,VALID,1003.69,VALID,0,VALID,95.9027,VALID,0,VALID,24.4043,VALID,328,VALID,0.274609,
2008-10-28, 03:47:04,VALID,1003.7,VALID,0,VALID,95.9332,VALID,0,VALID,24.4238,VALID,328,VALID,0.327344,
2008-10-28, 03:48:04,VALID,1003.72,VALID,0,VALID,95.9484,VALID,0,VALID,24.4433,VALID,328,VALID,0.366797,
2008-10-28, 03:49:04,VALID,1003.7,VALID,0,VALID,95.9255,VALID,0.100563,VALID,24.4043,VALID,328,VALID,0.236328,
2008-10-28, 03:50:04,VALID,1003.74,VALID,0,VALID,95.9179,VALID,0,VALID,24.4238,VALID,328,VALID,0,